{"data":{"norad_id":59901,"epoch":"2026-05-25T02:17:56.327712Z","epoch_age_seconds":60546,"freshness":"FRESH","line1":"1 59901U 24100S   26145.09579083  .00000623  00000+0  32166-4 0  9992","line2":"2 59901  43.0036  46.8522 0001115 275.4394  84.6330 15.27586688112915","mean_motion":15.27586688,"eccentricity":0.0001115,"inclination_deg":43.0036,"raan_deg":46.8522,"arg_perigee_deg":275.4394,"mean_anomaly_deg":84.633,"bstar":3.2166e-5,"rev_number":11291,"period_min":94.266335999912,"perigee_km":482.26404981794,"apogee_km":483.79408985151,"semimajor_km":6861.1660698347,"source":"CELESTRAK","updated_at":"2026-05-25T13:38:19.119615Z"}}